Location: Prosper
(33.2362°N, 96.8011°W)
Time: 08:02:13
(UTC+00:00)

BREEZE-M DEB (TANK) - Pass Details

Date: 03 December 2021
Orbit: 315 x 12018 km, 49.7° (Epoch: 26 January)

Event Time Altitude Azimuth Distance (km) Brightness Sun altitude
Exits shadow 12:17:48 - 309° (NW) 7,251 7.2 -11.8°
Reaches altitude 10° 12:19:17 10° 309° (NW) 6,732 7.0 -11.5°
Maximum altitude 12:34:21 73° 228° (SW) 1,198 3.7 -8.5°
Drops below altitude 10° 12:38:36 10° 144° (SE) 2,054 6.0 -7.7°
Sets 12:40:01 0° 141° (SE) 2,662 6.8 -7.4°
